Location: Stara Lesna
(49.1528°N, 20.2911°E)
Time: 09:25:07
(UTC+02:00)

Cosmos 1743 - Pass Details

Date: 13 July 2020
Orbit: 511 x 526 km, 82.6° (Epoch: 05 August)

Event Time Altitude Azimuth Distance (km) Brightness Sun altitude
Exits shadow 03:41:13 - 180° (S) 2,107 5.3 -8.9°
Reaches altitude 10° 03:42:07 10° 179° (S) 1,734 4.9 -8.8°
Maximum altitude 03:45:53 67° 96° (E) 564 3.0 -8.4°
Drops below altitude 10° 03:49:43 10° 15° (NNE) 1,757 6.5 -8.0°
Sets 03:51:52 0° 12° (NNE) 2,652 7.5 -7.8°
